Regional Weather Roundup
Issued by NWS

Home | Current Version | Previous Version | Graphics & Text | Print | Product List | Glossary On
Versions: 1 2 3 4 5 6 7 8 9 10 11 12 13 14 15 16 17 18 19 20 21 22 23 24 25 26 27 28 29 30 31 32 33 34 35 36 37 38 39 40 41 42 43 44 45 46 47 48 49 50
000
ASUS43 KFSD 280310
RWRSD

WEATHER ROUNDUP FOR SOUTH DAKOTA
NATIONAL WEATHER SERVICE SIOUX FALLS SD
900 PM CST THU NOV 27 2014

NOTE: "FAIR" INDICATES FEW OR NO CLOUDS BELOW 12,000 FEET WITH NO
SIGNIFICANT WEATHER AND/OR OBSTRUCTIONS TO VISIBILITY.


SDZ001>005-009-010-012>017-280400-
NORTHWEST AND NORTH CENTRAL SOUTH DAKOTA

CITY           SKY/WX    TMP DP  RH WIND       PRES   REMARKS
BUFFALO          N/A     26  21  81 CALM      29.74F
FAITH            N/A     23  17  78 S12       29.84F WCI  12
MOBRIDGE       MOCLDY    17  12  80 SE10      29.90F WCI   5
$$

SDZ012>016-024>037-041>051-057-063-072>074-280400-
SOUTHWEST AND SOUTH CENTRAL SOUTH DAKOTA

CITY           SKY/WX    TMP DP  RH WIND       PRES   REMARKS
RAPID CTY ARPT CLEAR     28  24  85 CALM      29.87S
PIERRE         CLOUDY    26  17  68 SE12      29.89F WCI  16
CUSTER         CLEAR     44  24  45 W3        29.94F
ELLSWORTH AFB  CLEAR     32  26  77 W8        29.85F WCI  25
PHILIP         CLEAR     24  19  81 NW5       29.87F WCI  18
PINE RIDGE     CLEAR     41  30  65 W6        29.93S
SPEARFISH      FAIR      50  28  43 W12       29.87F
WINNER         CLOUDY    37  22  54 S16G25    29.87F
$$

SDZ004>011-016>023-039-040-280400-
NORTHEAST SOUTH DAKOTA

CITY           SKY/WX    TMP DP  RH WIND       PRES   REMARKS
ABERDEEN       CLOUDY    17   9  70 S15       30.03F WCI   2
WATERTOWN      CLOUDY    13   5  70 S16G28    30.02F WCI  -3
SISSETON         N/A      6   3  87 S15       30.13F WCI -12
$$

SDZ017-020-022-023-036>040-048>070-280400-
SOUTHEAST SOUTH DAKOTA

CITY           SKY/WX    TMP DP  RH WIND       PRES   REMARKS
SIOUX FALLS    CLOUDY    14   7  73 SE13      30.11F WCI   0
HURON          CLOUDY    16   9  74 SE18G26   30.00F WCI   0
CHAMBERLAIN    CLOUDY    27  17  67 SE14      29.91F WCI  15
MITCHELL       CLOUDY    19  11  70 SE21G29   30.04F WCI   3
YANKTON        CLOUDY    21  10  63 SE22      30.11F WCI   5
$$

ABBREVIATIONS USED IN REMARKS
   TC - TEMPERATURE IN CELSIUS
  WCI - WIND CHILL INDEX
   HX - HEAT INDEX
  VSB - VISIBILITY




USA.gov is the U.S. government's official web portal to all federal, state and local government web resources and services.